When you browse on this site, cookies collect data to enhance your experience and personalize the content and advertising you see.
Visit our Privacy Policy to learn more. By continuing to use the site, you agree to this use of cookies and data.
  • In Czech Republic
  • List of Countries
  • For 7 days
  • Water Temperature
  • Weather Map
  • Weather Widgets
  • user-avatar
    Login

    Hourly Weather Santa Fe

    Today, 25 January, Saturday

    Time Temperature Precipitation Wind Pressure Humidity
    00:00 +26°C° 0 mm 3 mps 754 mmHg 50%
    01:00 +26°C° 0 mm 2 mps 754 mmHg 52%
    02:00 +25°C° 0 mm 2 mps 754 mmHg 55%
    03:00 +25°C° 0 mm 2 mps 754 mmHg 56%
    04:00 +24°C° 0 mm 2 mps 754 mmHg 56%
    05:00 +24°C° 0 mm 2 mps 754 mmHg 57%
    06:00 +26°C° 0 mm 2 mps 754 mmHg 52%
    07:00 +28°C° 0 mm 2 mps 754 mmHg 48%
    08:00 +30°C° 0 mm 3 mps 755 mmHg 43%
    09:00 +34°C° 0 mm 3 mps 754 mmHg 38%
    10:00 +36°C° 0 mm 3 mps 754 mmHg 33%
    11:00 +38°C° 0 mm 4 mps 754 mmHg 28%
    12:00 +40°C° 0 mm 3 mps 753 mmHg 24%
    13:00 +42°C° 0 mm 3 mps 753 mmHg 20%
    14:00 +44°C° 0 mm 3 mps 752 mmHg 16%
    15:00 +44°C° 0 mm 3 mps 751 mmHg 14%
    16:00 +44°C° 0 mm 3 mps 751 mmHg 12%
    17:00 +44°C° 0 mm 4 mps 750 mmHg 10%
    18:00 +40°C° 0 mm 3 mps 751 mmHg 17%
    19:00 +36°C° 0 mm 3 mps 751 mmHg 24%
    20:00 +33°C° 0 mm 3 mps 751 mmHg 30%
    21:00 +31°C° 0 mm 3 mps 751 mmHg 36%
    22:00 +29°C° 0 mm 3 mps 752 mmHg 42%
    23:00 +28°C° 0 mm 3 mps 752 mmHg 48%

    Tomorrow, 26 January, Sunday

    Time Temperature Precipitation Wind Pressure Humidity
    00:00 +28°C° 0 mm 3 mps 752 mmHg 50%
    01:00 +27°C° 0 mm 3 mps 751 mmHg 52%
    02:00 +27°C° 0 mm 3 mps 751 mmHg 54%
    03:00 +26°C° 0 mm 3 mps 751 mmHg 56%
    04:00 +26°C° 0 mm 3 mps 752 mmHg 58%
    05:00 +26°C° 0 mm 2 mps 752 mmHg 60%
    06:00 +28°C° 0 mm 3 mps 752 mmHg 54%
    07:00 +30°C° 0 mm 3 mps 753 mmHg 49%
    08:00 +33°C° 0 mm 3 mps 753 mmHg 43%
    09:00 +35°C° 0 mm 3 mps 753 mmHg 35%
    10:00 +38°C° 0 mm 2 mps 753 mmHg 28%
    11:00 +41°C° 0 mm 2 mps 753 mmHg 20%
    12:00 +42°C° 0 mm 2 mps 752 mmHg 18%
    13:00 +43°C° 0 mm 2 mps 752 mmHg 15%
    14:00 +45°C° 0 mm 3 mps 751 mmHg 13%
    15:00 +45°C° 0 mm 2 mps 751 mmHg 13%
    16:00 +43°C° 0 mm 2 mps 750 mmHg 13%
    17:00 +43°C° 0 mm 2 mps 750 mmHg 14%
    18:00 +40°C° 0 mm 2 mps 750 mmHg 19%
    19:00 +38°C° 0 mm 2 mps 751 mmHg 25%
    20:00 +35°C° 0 mm 3 mps 751 mmHg 30%
    21:00 +34°C° 0 mm 3 mps 752 mmHg 32%
    22:00 +34°C° 0 mm 3 mps 753 mmHg 33%
    23:00 +33°C° 0 mm 3 mps 753 mmHg 34%

    Day after tomorrow, 27 January, Monday

    Time Temperature Precipitation Wind Pressure Humidity
    00:00 +32°C° 0 mm 4 mps 753 mmHg 32%
    01:00 +32°C° 0 mm 5 mps 754 mmHg 29%
    02:00 +32°C° 0 mm 5 mps 754 mmHg 27%
    03:00 +29°C° 0 mm 5 mps 754 mmHg 33%
    04:00 +27°C° 0 mm 4 mps 755 mmHg 38%
    05:00 +26°C° 0 mm 4 mps 755 mmHg 43%
    06:00 +27°C° 0 mm 4 mps 756 mmHg 44%
    07:00 +28°C° 0 mm 4 mps 756 mmHg 45%
    08:00 +29°C° 0 mm 5 mps 756 mmHg 46%
    09:00 +32°C° 0 mm 5 mps 757 mmHg 39%
    10:00 +35°C° 0 mm 5 mps 757 mmHg 32%
    11:00 +37°C° 0 mm 5 mps 757 mmHg 25%
    12:00 +38°C° 0 mm 4 mps 756 mmHg 23%
    13:00 +40°C° 0 mm 4 mps 756 mmHg 20%
    14:00 +40°C° 0 mm 3 mps 755 mmHg 17%
    15:00 +40°C° 0 mm 3 mps 755 mmHg 16%
    16:00 +40°C° 0 mm 3 mps 754 mmHg 16%
    17:00 +40°C° 0 mm 2 mps 754 mmHg 16%
    18:00 +37°C° 0 mm 3 mps 754 mmHg 18%
    19:00 +35°C° 0 mm 3 mps 754 mmHg 20%
    20:00 +33°C° 0 mm 4 mps 754 mmHg 21%
    21:00 +32°C° 0 mm 4 mps 755 mmHg 25%
    22:00 +30°C° 0 mm 5 mps 755 mmHg 28%
    23:00 +28°C° 0 mm 5 mps 756 mmHg 31%

    28 January, Tuesday

    Time Temperature Precipitation Wind Pressure Humidity
    00:00 +27°C° 0 mm 5 mps 756 mmHg 35%
    01:00 +26°C° 0 mm 4 mps 756 mmHg 38%
    02:00 +26°C° 0 mm 4 mps 756 mmHg 41%
    03:00 +25°C° 0 mm 4 mps 756 mmHg 45%
    04:00 +24°C° 0 mm 3 mps 756 mmHg 49%
    05:00 +22°C° 0 mm 3 mps 756 mmHg 53%
    06:00 +24°C° 0 mm 3 mps 756 mmHg 51%
    07:00 +26°C° 0 mm 2 mps 756 mmHg 49%
    08:00 +27°C° 0 mm 2 mps 756 mmHg 48%
    09:00 +29°C° 0 mm 2 mps 756 mmHg 42%
    10:00 +33°C° 0 mm 3 mps 756 mmHg 36%
    11:00 +35°C° 0 mm 4 mps 756 mmHg 30%
    12:00 +36°C° 0 mm 4 mps 755 mmHg 27%
    13:00 +37°C° 0 mm 4 mps 754 mmHg 24%
    14:00 +38°C° 0 mm 4 mps 753 mmHg 21%
    15:00 +37°C° 0 mm 4 mps 753 mmHg 23%
    16:00 +37°C° 0 mm 4 mps 752 mmHg 25%
    17:00 +36°C° 0 mm 5 mps 751 mmHg 28%
    18:00 +34°C° 0 mm 4 mps 751 mmHg 31%
    19:00 +31°C° 0 mm 3 mps 751 mmHg 35%
    20:00 +29°C° 0 mm 2 mps 751 mmHg 38%
    21:00 +29°C° 0 mm 2 mps 751 mmHg 39%
    22:00 +28°C° 0 mm 2 mps 751 mmHg 40%
    23:00 +28°C° 0 mm 2 mps 751 mmHg 41%

    29 January, Wednesday

    Time Temperature Precipitation Wind Pressure Humidity
    00:00 +27°C° 0 mm 1 mps 751 mmHg 43%
    01:00 +27°C° 0 mm 1 mps 751 mmHg 45%
    02:00 +26°C° 0 mm 1 mps 750 mmHg 46%
    03:00 +24°C° 0 mm 0 mps 751 mmHg 47%
    04:00 +25°C° 0 mm 0 mps 751 mmHg 47%
    05:00 +25°C° 0 mm 0 mps 752 mmHg 48%
    06:00 +28°C° 0 mm 1 mps 752 mmHg 46%
    07:00 +28°C° 0 mm 1 mps 753 mmHg 44%
    08:00 +29°C° 0 mm 1 mps 754 mmHg 42%
    09:00 +31°C° 0 mm 1 mps 754 mmHg 38%
    10:00 +33°C° 0 mm 1 mps 754 mmHg 33%
    11:00 +35°C° 0 mm 1 mps 754 mmHg 29%
    12:00 +37°C° 0 mm 2 mps 754 mmHg 29%
    13:00 +37°C° 0 mm 3 mps 753 mmHg 29%
    14:00 +37°C° 0 mm 4 mps 752 mmHg 29%
    15:00 +36°C° 0 mm 5 mps 752 mmHg 33%
    16:00 +34°C° 0 mm 6 mps 752 mmHg 37%
    17:00 +33°C° 0 mm 7 mps 752 mmHg 41%
    18:00 +30°C° 0.1 mm 6 mps 752 mmHg 47%
    19:00 +29°C° 0.1 mm 5 mps 753 mmHg 53%
    20:00 +27°C° 0.1 mm 4 mps 753 mmHg 58%
    21:00 +27°C° 0 mm 3 mps 753 mmHg 58%
    22:00 +27°C° 0 mm 3 mps 754 mmHg 58%
    23:00 +26°C° 0 mm 2 mps 754 mmHg 58%

    30 January, Thursday

    Time Temperature Precipitation Wind Pressure Humidity
    00:00 +26°C° 0 mm 2 mps 754 mmHg 61%
    01:00 +25°C° 0 mm 2 mps 754 mmHg 64%
    02:00 +24°C° 0 mm 2 mps 754 mmHg 68%
    03:00 +24°C° 0 mm 2 mps 754 mmHg 71%
    04:00 +23°C° 0 mm 2 mps 755 mmHg 73%
    05:00 +23°C° 0 mm 2 mps 755 mmHg 76%
    06:00 +24°C° 0 mm 2 mps 755 mmHg 69%
    07:00 +26°C° 0 mm 2 mps 756 mmHg 62%
    08:00 +28°C° 0 mm 2 mps 756 mmHg 56%
    09:00 +30°C° 0 mm 2 mps 756 mmHg 47%
    10:00 +32°C° 0 mm 2 mps 756 mmHg 38%
    11:00 +36°C° 0 mm 2 mps 755 mmHg 29%
    12:00 +37°C° 0 mm 2 mps 755 mmHg 26%
    13:00 +38°C° 0 mm 2 mps 754 mmHg 22%
    14:00 +39°C° 0 mm 2 mps 753 mmHg 19%
    15:00 +39°C° 0 mm 2 mps 752 mmHg 18%
    16:00 +39°C° 0 mm 2 mps 752 mmHg 17%
    17:00 +39°C° 0 mm 2 mps 751 mmHg 17%
    18:00 +36°C° 0 mm 2 mps 752 mmHg 19%
    19:00 +34°C° 0 mm 2 mps 752 mmHg 22%
    20:00 +30°C° 0 mm 2 mps 752 mmHg 24%
    21:00 +29°C° 0 mm 2 mps 753 mmHg 25%
    22:00 +28°C° 0 mm 2 mps 753 mmHg 26%
    23:00 +26°C° 0 mm 2 mps 754 mmHg 27%
    Show more